Weather History for Kaneohe MCBH, HI

Change the Weather History Date:

Wednesday, February 27, 2013

  Actual Average Record
Temperature  
Mean Temperature 76 °F -  
Max Temperature 82 °F 75 °F 82 °F (2013)
Min Temperature 71 °F 67 °F 62 °F (2008)
Cooling Degree Days 12    
Growing Degree Days 26 (Base 50)    
Moisture  
Dew Point 59 °F    
Average Humidity 58    
Maximum Humidity 72    
Minimum Humidity 45    
Precipitation  
Precipitation 0.00 in - - ()
Sea Level Pressure  
Sea Level Pressure 30.16 in    
Wind  
Wind Speed 13 mph (East)    
Max Wind Speed 18 mph    
Max Gust Speed 28 mph    
Visibility 7 miles    
Events Rain    
Averages and records for this station are not official NWS values.
T = Trace of Precipitation, MM = Missing Value Source: NWS Daily Summary

Daily Weather History Graph

Daily Weather History Graph

Search for Another Location

Airport:

Trip Planner

Search our weather history database for the weather conditions in past years. The results will help you decide how hot, cold, wet, or windy it might be!

Date:

Astronomy

Feb. 27, 2013 Rise Set
Actual Time 6:52 AM HST 6:34 PM HST
Civil Twilight 6:30 AM HST 6:57 PM HST
Nautical Twilight 6:04 AM HST 7:22 PM HST
Astronomical Twilight 5:38 AM HST 7:48 PM HST
Moon 8:41 PM HST (2/27) 7:56 AM HST (2/27)
Length of Visible Light 12h 26m
Length of Day
11h 41m
Waning Gibbous, 95% of the Moon is Illuminated
Feb 27
Waning Gibbous
Mar 4
Last Quarter
Mar 11
New
Mar 19
First Quarter
Mar 26
Full

Hourly Weather History & Observations

Time (HST) Temp. Heat Index Dew Point Humidity Pressure Visibility Wind Dir Wind Speed Gust Speed Precip Events Conditions
12:57 AM 71.6 °F - 61.0 °F 69% 30.17 in 7.0 mi ENE 13.8 mph 23.0 mph N/A   Scattered Clouds
1:57 AM 71.6 °F - 61.0 °F 69% 30.15 in 7.0 mi East 17.3 mph 26.5 mph N/A   Scattered Clouds
2:57 AM 71.6 °F - 59.0 °F 64% 30.14 in 7.0 mi ENE 10.4 mph 23.0 mph N/A   Scattered Clouds
3:57 AM 71.6 °F - 57.9 °F 62% 30.14 in 7.0 mi East 13.8 mph 25.3 mph N/A   Scattered Clouds
4:57 AM 71.6 °F - 62.1 °F 72% 30.14 in 7.0 mi East 15.0 mph 27.6 mph N/A   Scattered Clouds
5:57 AM 73.4 °F - 60.1 °F 63% 30.15 in 7.0 mi East 12.7 mph 21.9 mph N/A   Scattered Clouds
6:57 AM 73.4 °F - 57.9 °F 58% 30.16 in 7.0 mi ENE 18.4 mph 26.5 mph N/A   Scattered Clouds
7:57 AM 75.2 °F - 55.0 °F 49% 30.18 in 7.0 mi East 9.2 mph 17.3 mph N/A   Scattered Clouds
8:57 AM 75.2 °F - 55.9 °F 51% 30.20 in 7.0 mi ENE 15.0 mph 25.3 mph N/A   Scattered Clouds
9:57 AM 75.2 °F - 55.0 °F 49% 30.20 in 7.0 mi ENE 10.4 mph 21.9 mph N/A   Clear
10:57 AM 75.2 °F - 55.9 °F 51% 30.20 in 7.0 mi East 10.4 mph 27.6 mph N/A   Partly Cloudy
11:57 AM 77.7 °F - 57.9 °F 50% 30.18 in 7.0 mi East 15.0 mph 21.9 mph N/A   Clear
12:57 PM 78.8 °F - 55.9 °F 45% 30.16 in 7.0 mi East 13.8 mph 21.9 mph N/A   Scattered Clouds
1:57 PM 80.6 °F 81.5 °F 61.0 °F 51% 30.14 in 7.0 mi ENE 11.5 mph 21.9 mph N/A   Scattered Clouds
2:57 PM 82.4 °F 82.9 °F 61.0 °F 48% 30.12 in 7.0 mi ENE 12.7 mph 21.9 mph N/A   Scattered Clouds
3:57 PM 78.8 °F - 60.1 °F 53% 30.12 in 7.0 mi ENE 11.5 mph 21.9 mph N/A   Scattered Clouds
4:57 PM 77.0 °F - 60.1 °F 56% 30.12 in 7.0 mi ENE 13.8 mph 21.9 mph N/A   Scattered Clouds
5:57 PM 75.2 °F - 59.0 °F 57% 30.14 in 7.0 mi East 10.4 mph 19.6 mph 0.00 in Rain Light Rain
6:57 PM 73.4 °F - 62.1 °F 68% 30.15 in 7.0 mi East 12.7 mph 21.9 mph 0.00 in   Scattered Clouds
7:57 PM 73.4 °F - 59.0 °F 61% 30.16 in 7.0 mi East 9.2 mph - N/A   Scattered Clouds
8:57 PM 73.4 °F - 60.1 °F 63% 30.18 in 7.0 mi ENE 10.4 mph 20.7 mph N/A   Partly Cloudy
9:57 PM 71.6 °F - 59.0 °F 64% 30.18 in 7.0 mi East 11.5 mph 23.0 mph N/A   Mostly Cloudy
10:57 PM 71.6 °F - 60.1 °F 67% 30.17 in 7.0 mi East 9.2 mph 20.7 mph N/A   Scattered Clouds
11:57 PM 71.6 °F - 57.9 °F 62% 30.16 in 7.0 mi East 11.5 mph 19.6 mph N/A   Scattered Clouds